{"data":{"norad_id":61916,"intl_designator":"2024-207E","name":"STARLINK-32541","alt_names":[],"object_type":"PAYLOAD","status":"ACTIVE","operator":null,"country":"US","launch_date":"2024-11-11","launch_site_code":"AFETR","launch_vehicle":null,"mission":null,"orbit_class":"UNKNOWN","rcs_meters":null,"size_class":null,"mass_kg":null,"dimensions":null,"purposes":["comms"],"wikipedia_slug":null,"has_3d_model":false,"image_url":null,"decayed_at":null,"tle_current":{"epoch":"2026-05-25T04:00:03.998880Z","epoch_age_seconds":74844,"freshness":"FRESH","line1":"1 61916U 24207E   26145.16671295  .00035239  00000+0  12843-2 0  9994","line2":"2 61916  42.9994 213.5698 0001387 265.9527 147.7186 15.27571434  5852","mean_motion":15.27571434,"eccentricity":0.0001387,"inclination_deg":42.9994,"raan_deg":213.5698,"arg_perigee_deg":265.9527,"mean_anomaly_deg":147.7186,"bstar":0.0012843,"rev_number":585,"period_min":94.267277323281,"perigee_km":482.12309577597,"apogee_km":484.02639591426,"semimajor_km":6861.2117458451,"source":"CELESTRAK","updated_at":"2026-05-25T13:38:19.480729Z"}}}